Location: Plainartige
(45.6866°N, 1.7993°E)
Time: 17:23:05
(UTC+00:00)

CZ-4B R/B - Pass Details

Date: 03 March 2021
Orbit: 388 x 455 km, 97.6° (Epoch: 11 April)

Event Time Altitude Azimuth Distance (km) Brightness Sun altitude
Rises 18:40:04 0° 3° (N) 2,293 5.0 -10.8°
Reaches altitude 10° 18:42:09 10° 353° (N) 1,435 4.1 -11.2°
Maximum altitude 18:44:53 31° 289° (WNW) 726 3.3 -11.7°
Drops below altitude 10° 18:47:38 10° 225° (SW) 1,439 4.6 -12.2°
Sets 18:49:44 0° 215° (SW) 2,301 5.5 -12.5°
